Regional Weather Roundup
Issued by NWS

Home | Current Version | Previous Version | Graphics & Text | Print | Product List | Glossary Off
Versions: 1 2 3 4 5 6 7 8 9 10 11 12 13 14 15 16 17 18 19 20 21 22 23 24 25 26 27 28 29 30 31 32 33 34 35 36 37 38 39 40 41 42 43 44 45 46 47 48 49 50

000
ASUS43 KDMX 240807
RWRIA

WEATHER ROUNDUP FOR IOWA
NATIONAL WEATHER SERVICE DES MOINES IA
200 AM CST WED DEC 24 2014

NOTE: "FAIR" INDICATES FEW OR NO CLOUDS BELOW 12,000 FEET WITH NO
SIGNIFICANT WEATHER AND/OR OBSTRUCTIONS TO VISIBILITY.

* - THESE STATIONS ARE NOT NWS STATIONS...THUS NOT UNDER NWS
QUALITY CONTROL.  THEY ALSO DO NOT REPORT WEATHER SUCH
AS PRECIPITATION OR FOG.

IAZ001>003-012>014-020>022-031>034-043>046-240900-
   NORTHWEST IOWA

CITY           SKY/WX    TMP DP  RH WIND       PRES   REMARKS
CARROLL *      LGT SNOW  34  34 100 NW21      29.82F WCI  22
CHEROKEE *     CLOUDY    34  32  93 N16G23    29.87S WCI  23
DENISON *      LGT RAIN  34  34 100 N18       29.84S WCI  23
LE MARS *      CLOUDY    34  32  93 N14G22    29.91S WCI  24
ORANGE CITY *  CLOUDY    34  32  93 N12G18    29.89S WCI  25
SHELDON *      CLOUDY    32  32 100 NW21      29.87F WCI  20
SIOUX CITY     CLOUDY    34  31  88 NW18      29.91F WCI  23
SPENCER        CLOUDY    33  30  88 NW17      29.85F WCI  22
STORM LAKE *   CLOUDY    34  32  93 N18       29.85F WCI  23
$$

IAZ055>058-069>071-079>083-090>094-240900-
   SOUTHWEST IOWA

CITY           SKY/WX    TMP DP  RH WIND       PRES   REMARKS
ATLANTIC *     LGT RAIN  34  34 100 N17       29.83S WCI  23
AUDUBON *      LGT SNOW  34  28  80 NW17G23   29.83S WCI  23
CLARINDA *     CLOUDY    36  34  93 N17       29.86R WCI  25
COUNCIL BLFS * CLOUDY    34  34 100 NW20G26   29.85F WCI  22
CRESTON *      LGT SNOW  34  34 100 N15G21    29.80R WCI  24
HARLAN  *      CLOUDY    34  34 100 N20       29.88S WCI  22
LAMONI         FLURRIES  34  32  92 N12       29.78S WCI  25
RED OAK *      LGT RAIN  34  34 100 N13G23    29.85S WCI  25
SHENANDOAH *   MIX PCPN  34  34 100 NW14G21   29.87S WCI  24
$$

IAZ047>049-059>061-072>074-084-240900-
   CENTRAL IOWA

CITY           SKY/WX    TMP DP  RH WIND       PRES   REMARKS
AMES           LGT SNOW  33  31  92 N14       29.78S FOG     WCI  23
ANKENY *       LGT SNOW  34  34 100 N12G20    29.79R WCI  25
CHARITON *     CLOUDY    34  32  93 NW13      29.78R WCI  25
DES MOINES     LGT SNOW  34  32  92 N10       29.79R FOG     WCI  26
GRINNELL*      CLOUDY    34  32  93 NW10      29.77R WCI  26
KNOXVILLE *    CLOUDY    34  32  93 NW12      29.77R WCI  25
MARSHALLTOWN   CLOUDY    33  32  96 N13       29.76R WCI  24
PELLA *        LGT RAIN  34  34 100 NW8       29.79R WCI  27
PERRY *        CLOUDY    34  34 100 N13       29.81R WCI  25
$$

IAZ004>006-015-016-023>025-035-036-240900-
   NORTH CENTRAL IOWA

CITY           SKY/WX    TMP DP  RH WIND       PRES   REMARKS
ALGONA *       MIX PCPN  34  34 100 N15G23    29.81F WCI  24
CLARION *      CLOUDY    34  34 100 N12G17    29.79S WCI  25
ESTHERVILLE    CLOUDY    32  31  96 N18G28    29.83F WCI  20
FORT DODGE *   CLOUDY    34  30  86 N9G16     29.81S WCI  26
MASON CITY     CLOUDY    33  31  92 N16       29.78F WCI  23
FOREST CITY *  CLOUDY    34  32  93 N14       29.78F WCI  24
IOWA FALLS *   CLOUDY    34  32  93 N14G23    29.77S WCI  24
$$

IAZ007>011-017>019-026>030-037>042-050>054-066-240900-
   NORTHEAST IOWA

CITY           SKY/WX    TMP DP  RH WIND       PRES   REMARKS
CEDAR RAPIDS   CLOUDY    34  34 100 NW6       29.73R FOG     WCI  29
CHARLES CITY * CLOUDY    34  34 100 N13       29.76R WCI  25
CLINTON *      CLOUDY    36  34  93 W6        29.73S WCI  31
DECORAH *      CLOUDY    34  32  93 N10       29.71S WCI  26
DUBUQUE        FOG       33  33 100 N9        29.70R VSB 1/2 WCI  25
MONTICELLO *   CLOUDY    34  34 100 NW8       29.72R FOG     WCI  27
OELWEIN *      CLOUDY    34  34 100 N13       29.73R WCI  25
WATERLOO       CLOUDY    33  33 100 N9        29.75R WCI  25
$$

IAZ064-065-067-068-078-240900-
   EAST CENTRAL IOWA

CITY           SKY/WX    TMP DP  RH WIND       PRES   REMARKS
DAVENPORT      CLOUDY    36  33  89 NW6       29.72S WCI  31
IOWA CITY      CLOUDY    35  34  96 NW7       29.75R FOG     WCI  29
MT. PLEASANT * CLOUDY    36  34  93 NW8       29.74S WCI  29
MUSCATINE *    CLOUDY    37  34  87 NW6       29.75R WCI  33
QUAD CITIES    CLOUDY    37  34  89 NW7       29.71R WCI  32
$$

IAZ062-063-075>077-085>089-095>099-240900-
   SOUTHEAST IOWA

CITY           SKY/WX    TMP DP  RH WIND       PRES   REMARKS
BURLINGTON     CLOUDY    38  36  92 NW8       29.72S WCI  32
FAIRFIELD *    CLOUDY    36  32  87 NW9       29.75S WCI  29
FORT MADISON * CLOUDY    39  37  93 NW9       29.74S WCI  33
KEOKUK *       CLOUDY    37  36  93 NW7       29.73F WCI  32
OSKALOOSA *    CLOUDY    34  32  93 NW10      29.77R FOG     WCI  26
CENTERVILLE *  CLOUDY    34  34 100 NW10      29.77S WCI  26
OTTUMWA        CLOUDY    35  33  92 NW9       29.76R WCI  28
WASHINGTON *   CLOUDY    36  36 100 NW9       29.74S WCI  29
$$

ABBREVIATIONS USED IN REMARKS
   TC - TEMPERATURES IN CELSIUS
  WCI - WIND CHILL INDEX
   HX - HEAT INDEX
  VSB - VISIBILITY
$$




USA.gov is the U.S. government's official web portal to all federal, state and local government web resources and services.